This is the latest recevied weather packets stored in our database for station/object W6KRP-12. If no packets are shown the sender has not sent any weather packets the latest 10 day(s).
| Time | Temp. | Humidity | Pressure | Rain* | Wind** | Luminosity | Snow |
|---|---|---|---|---|---|---|---|
| 1777636206 | 15.56° C | 69% | 1011.6 hPa | 0 mm | - | - | - |
| 1777632606 | 15.56° C | 77% | 1011 hPa | 0 mm | - | - | - |
| 1777632006 | 15.56° C | 79% | 1011 hPa | 0 mm | - | - | - |
| 1777630806 | 15.56° C | 90% | 1010.6 hPa | 0 mm | - | - | - |
| 1777621806 | 12.78° C | 98% | 1009.2 hPa | 0 mm | - | - | - |
| 1777620606 | 12.78° C | 98% | 1008.8 hPa | 0 mm | - | - | - |
| 1777619406 | 12.78° C | 98% | 1008.8 hPa | 0 mm | - | - | - |
| 1777609206 | 15° C | 96% | 1009.3 hPa | 0 mm | - | - | - |
| 1777604406 | 16.11° C | 94% | 1008.9 hPa | 0 mm | - | - | - |
| 1777603206 | 16.11° C | 93% | 1009 hPa | 0 mm | - | - | - |
| 1777600807 | 16.67° C | 92% | 1008.7 hPa | 0 mm | - | - | - |
| 1777600207 | 16.67° C | 92% | 1008.6 hPa | 0 mm | - | - | - |
| 1777599007 | 17.22° C | 90% | 1008.3 hPa | 0 mm | - | - | - |
| 1777597207 | 17.78° C | 87% | 1008 hPa | 0 mm | - | - | - |
| 1777590606 | 23.33° C | 64% | 1006.8 hPa | 0 mm | - | - | - |
| 1777589406 | 22.78° C | 66% | 1006.5 hPa | 0 mm | - | - | - |
| 1777576806 | 23.33° C | 64% | 1007.1 hPa | 0 mm | - | - | - |
| 1777575607 | 23.33° C | 63% | 1007.1 hPa | 0 mm | - | - | - |
| 1777569606 | 21.11° C | 68% | 1006.7 hPa | 0 mm | - | - | - |
| 1777569006 | 21.11° C | 69% | 1006.6 hPa | 0 mm | - | - | - |
| 1777566006 | 21.11° C | 73% | 1007.2 hPa | 0 mm | - | - | - |
| 1777552807 | 19.44° C | 96% | 1006.9 hPa | 1.02 mm | - | - | - |
| 1777552207 | 19.44° C | 96% | 1006.5 hPa | 1.02 mm | - | - | - |
| 1777546806 | 19.44° C | 95% | 1005.2 hPa | 0 mm | - | - | - |
| 1777546206 | 19.44° C | 94% | 1005 hPa | 0 mm | - | - | - |
* Rain latest hour (hover to see other rain measurements)
** Current wind speed in m/s (hover to see current wind gust speed)